Marysville, OH

1:20 AM EDT on October 22, 2017 (GMT -0400)
Marysville

Weather History for KMRT - April, 2014

Change the Weather History Date:

Monday, April 14, 2014

  Actual Average (KDLZ) Record (KDLZ)
Temperature  
Mean Temperature 54 °F -  
Max Temperature 68 °F 62 °F 84 °F (1941)
Min Temperature 40 °F 38 °F 19 °F (1950)
Degree Days  
Heating Degree Days 10    
Growing Degree Days 4 (Base 50)    
Moisture  
Dew Point 50 °F    
Average Humidity 69    
Maximum Humidity 89    
Minimum Humidity 44    
Precipitation  
Precipitation 0.15 in - - ()
Sea Level Pressure  
Sea Level Pressure 29.69 in    
Wind  
Wind Speed 17 mph (WSW)    
Max Wind Speed 31 mph    
Max Gust Speed 40 mph    
Visibility 9 miles    
Events      
Averages and records for this station are not official NWS values.
T = Trace of Precipitation, MM = Missing Value Source: NWS Daily Summary

Daily Weather History Graph

Daily Weather History Graph

Search for Another Location

Airport or City:

Trip Planner

Search our weather history database for the weather conditions in past years. The results will help you decide how hot, cold, wet, or windy it might be!

Date:

Astronomy

Apr. 14, 2014 Rise Set
Actual Time 6:56 AM EDT 8:11 PM EDT
Civil Twilight 6:28 AM EDT 8:39 PM EDT
Nautical Twilight 5:55 AM EDT 9:13 PM EDT
Astronomical Twilight 5:20 AM EDT 9:48 PM EDT
Moon 7:48 PM EDT (4/14) 6:28 AM EDT (4/14)
Length of Visible Light 14h 10m
Length of Day
13h 14m
Full, 100% of the Moon is Illuminated
Apr 14
Full
Apr 15
Full
Apr 22
Last Quarter
Apr 29
New
May 6
First Quarter

Hourly Weather History & Observations

Time (EDT) Temp. Windchill Dew Point Humidity Pressure Visibility Wind Dir Wind Speed Gust Speed Precip Events Conditions
12:13 AM 66.4 °F - 43.7 °F 44% 29.75 in 10.0 mi SSW 12.7 mph - N/A   Clear
12:34 AM 65.8 °F - 44.2 °F 46% 29.75 in 10.0 mi SSW 11.5 mph - N/A   Clear
12:54 AM 65.7 °F - 45.0 °F 47% 29.74 in 10.0 mi SSW 12.7 mph 18.4 mph N/A   Clear
1:14 AM 66.2 °F - 46.0 °F 48% 29.74 in 10.0 mi SSW 16.1 mph - N/A   Clear
1:34 AM 66.4 °F - 46.8 °F 49% 29.74 in 10.0 mi SSW 15.0 mph - N/A   Clear
1:54 AM 66.2 °F - 47.5 °F 51% 29.73 in 10.0 mi SSW 13.8 mph 20.7 mph N/A   Clear
2:14 AM 66.4 °F - 47.8 °F 51% 29.71 in 10.0 mi SSW 15.0 mph 18.4 mph N/A   Clear
2:34 AM 67.1 °F - 48.0 °F 50% 29.71 in 10.0 mi SSW 16.1 mph 25.3 mph N/A   Clear
2:54 AM 67.5 °F - 48.2 °F 50% 29.70 in 10.0 mi SSW 18.4 mph 25.3 mph N/A   Clear
3:14 AM 67.3 °F - 48.4 °F 51% 29.69 in 10.0 mi SSW 16.1 mph 23.0 mph N/A   Clear
3:34 AM 67.1 °F - 48.7 °F 52% 29.69 in 10.0 mi SSW 15.0 mph 24.2 mph N/A   Clear
3:54 AM 66.9 °F - 49.3 °F 53% 29.68 in 10.0 mi SSW 17.3 mph - N/A   Clear
4:14 AM 65.8 °F - 49.6 °F 56% 29.68 in 10.0 mi South 12.7 mph - N/A   Clear
4:34 AM 66.0 °F - 49.6 °F 55% 29.68 in 10.0 mi SSW 15.0 mph 20.7 mph N/A   Clear
4:54 AM 66.4 °F - 50.0 °F 56% 29.67 in 10.0 mi SSW 18.4 mph 25.3 mph N/A   Mostly Cloudy
5:14 AM 66.7 °F - 50.2 °F 55% 29.66 in 10.0 mi SSW 20.7 mph 26.5 mph N/A   Overcast
5:34 AM 68.2 °F - 50.0 °F 52% 29.65 in 10.0 mi SSW 23.0 mph 34.5 mph N/A   Overcast
5:54 AM 68.4 °F - 50.2 °F 52% 29.64 in 10.0 mi SSW 23.0 mph 34.5 mph N/A   Mostly Cloudy
6:14 AM 68.0 °F - 50.4 °F 53% 29.64 in 10.0 mi SSW 21.9 mph 31.1 mph N/A   Mostly Cloudy
6:34 AM 68.2 °F - 50.2 °F 53% 29.64 in 10.0 mi SSW 26.5 mph 33.4 mph N/A   Mostly Cloudy
6:54 AM 67.8 °F - 50.2 °F 53% 29.65 in 10.0 mi SW 24.2 mph 33.4 mph N/A   Scattered Clouds
7:14 AM 66.7 °F - 51.4 °F 58% 29.65 in 10.0 mi SW 25.3 mph 38.0 mph N/A   Scattered Clouds
7:34 AM 64.4 °F - 52.7 °F 66% 29.67 in 7.0 mi SW 26.5 mph 40.3 mph N/A   Mostly Cloudy
7:54 AM 63.5 °F - 53.2 °F 69% 29.67 in 10.0 mi SW 20.7 mph 32.2 mph N/A   Overcast
8:14 AM 64.0 °F - 53.1 °F 67% 29.68 in 10.0 mi SW 21.9 mph 32.2 mph N/A   Overcast
8:34 AM 64.0 °F - 52.7 °F 67% 29.68 in 10.0 mi SW 19.6 mph 25.3 mph N/A   Overcast
8:54 AM 64.6 °F - 52.7 °F 65% 29.68 in 10.0 mi SW 18.4 mph 27.6 mph N/A   Overcast
9:14 AM 64.4 °F - 52.9 °F 66% 29.68 in 10.0 mi SSW 19.6 mph 31.1 mph N/A   Overcast
9:34 AM 62.8 °F - 54.1 °F 73% 29.68 in 7.0 mi SW 24.2 mph 29.9 mph N/A   Overcast
9:54 AM 62.2 °F - 54.9 °F 77% 29.67 in 10.0 mi SSW 20.7 mph 28.8 mph N/A   Overcast
10:14 AM 61.7 °F - 55.4 °F 80% 29.66 in 4.0 mi SSW 17.3 mph 32.2 mph N/A   Overcast
10:34 AM 62.2 °F - 55.6 °F 79% 29.67 in 10.0 mi SSW 21.9 mph 26.5 mph N/A   Overcast
10:54 AM 62.6 °F - 55.2 °F 77% 29.68 in 7.0 mi SW 31.1 mph 35.7 mph N/A   Overcast
11:14 AM 62.2 °F - 55.4 °F 78% 29.69 in 4.0 mi SW 27.6 mph 38.0 mph N/A   Overcast
11:34 AM 61.9 °F - 56.1 °F 81% 29.70 in 5.0 mi SW 24.2 mph 32.2 mph 0.01 in   Overcast
11:54 AM 62.2 °F - 55.6 °F 79% 29.69 in 10.0 mi SW 25.3 mph 38.0 mph 0.01 in   Overcast
12:14 PM 63.5 °F - 55.8 °F 76% 29.69 in 10.0 mi SW 27.6 mph 32.2 mph N/A   Overcast
12:34 PM 65.7 °F - 56.5 °F 72% 29.69 in 10.0 mi SW 25.3 mph 39.1 mph N/A   Overcast
12:54 PM 65.8 °F - 55.4 °F 69% 29.69 in 10.0 mi SW 26.5 mph 38.0 mph N/A   Overcast
1:14 PM 64.6 °F - 54.5 °F 70% 29.69 in 10.0 mi SW 23.0 mph 35.7 mph N/A   Overcast
1:34 PM 66.2 °F - 55.2 °F 68% 29.68 in 10.0 mi SW 19.6 mph 33.4 mph N/A   Overcast
1:54 PM 67.5 °F - 55.0 °F 64% 29.68 in 10.0 mi SW 26.5 mph 33.4 mph N/A   Overcast
2:14 PM 65.8 °F - 54.5 °F 67% 29.69 in 10.0 mi SW 24.2 mph 33.4 mph N/A   Overcast
2:34 PM 63.7 °F - 55.8 °F 75% 29.69 in 10.0 mi SW 19.6 mph 28.8 mph N/A   Overcast
2:54 PM 65.5 °F - 54.7 °F 68% 29.68 in 10.0 mi SW 19.6 mph 29.9 mph N/A   Overcast
3:14 PM 65.3 °F - 54.0 °F 67% 29.69 in 10.0 mi SW 23.0 mph 27.6 mph N/A   Overcast
3:33 PM 63.7 °F - 54.9 °F 73% 29.69 in 10.0 mi SW 16.1 mph 26.5 mph N/A   Overcast
3:54 PM 64.0 °F - 54.7 °F 72% 29.69 in 10.0 mi SW 19.6 mph 28.8 mph N/A   Overcast
4:14 PM 65.1 °F - 55.9 °F 72% 29.68 in 10.0 mi SW 17.3 mph 24.2 mph N/A   Overcast
4:33 PM 64.6 °F - 54.5 °F 70% 29.68 in 10.0 mi WSW 18.4 mph 27.6 mph N/A   Overcast
4:54 PM 64.8 °F - 54.3 °F 69% 29.67 in 10.0 mi WSW 17.3 mph 27.6 mph N/A   Overcast
5:14 PM 62.8 °F - 52.9 °F 70% 29.68 in 10.0 mi NW 11.5 mph 19.6 mph N/A   Overcast
5:34 PM 57.9 °F - 51.8 °F 80% 29.69 in 10.0 mi NNW 6.9 mph - N/A   Overcast
5:54 PM 57.2 °F - 50.7 °F 79% 29.69 in 10.0 mi North 9.2 mph - N/A   Overcast
6:14 PM 54.9 °F - 48.9 °F 80% 29.69 in 10.0 mi NNW 10.4 mph - N/A   Overcast
6:34 PM 52.7 °F - 47.1 °F 81% 29.69 in 10.0 mi NNW 10.4 mph - N/A   Overcast
6:54 PM 51.8 °F - 46.0 °F 81% 29.69 in 10.0 mi NNW 11.5 mph - N/A   Overcast
7:14 PM 52.0 °F - 46.4 °F 81% 29.68 in 10.0 mi North 6.9 mph - N/A   Overcast
7:34 PM 50.9 °F - 45.7 °F 82% 29.70 in 10.0 mi North 6.9 mph - N/A   Overcast
7:54 PM 50.9 °F - 45.0 °F 80% 29.70 in 10.0 mi NNW 9.2 mph - N/A   Overcast
8:14 PM 50.0 °F - 43.5 °F 78% 29.71 in 10.0 mi NW 8.1 mph - N/A   Overcast
8:34 PM 49.6 °F - 43.7 °F 80% 29.72 in 10.0 mi NNW 8.1 mph - N/A   Overcast
8:54 PM 48.2 °F - 42.4 °F 80% 29.72 in 7.0 mi NNW 6.9 mph - N/A   Overcast
9:14 PM 47.8 °F - 43.3 °F 84% 29.72 in 10.0 mi North 10.4 mph - N/A   Overcast
9:34 PM 46.9 °F - 42.1 °F 83% 29.72 in 10.0 mi North 6.9 mph - N/A   Overcast
9:54 PM 46.4 °F 41.1 °F 41.0 °F 81% 29.74 in 10.0 mi North 11.5 mph 16.1 mph N/A   Overcast
10:14 PM 44.8 °F 38.0 °F 40.3 °F 84% 29.73 in 5.0 mi NNW 15.0 mph - 0.01 in   Overcast
10:34 PM 43.9 °F 38.3 °F 39.9 °F 86% 29.75 in 5.0 mi NNW 10.4 mph - 0.01 in   Overcast
10:54 PM 43.0 °F 38.2 °F 39.4 °F 87% 29.76 in 3.0 mi NW 8.1 mph - 0.04 in   Overcast
11:14 PM 43.0 °F 38.8 °F 39.7 °F 88% 29.72 in 5.0 mi North 6.9 mph - 0.01 in   Overcast
11:34 PM 41.7 °F 35.2 °F 38.7 °F 89% 29.74 in 2.5 mi NNW 11.5 mph - 0.08 in   Overcast
11:54 PM 40.8 °F 32.9 °F 37.9 °F 89% 29.73 in 4.0 mi NNW 15.0 mph 19.6 mph 0.10 in   Overcast